North Island, CA

12:54 PM PDT on August 21, 2017 (GMT -0700)
North Island Naval Air Station

Weather History for KNZY - October, 2012

Change the Weather History Date:

Sunday, October 21, 2012

  Actual Average Record
Temperature  
Mean Temperature 67 °F -  
Max Temperature 71 °F 68 °F 88 °F (1999)
Min Temperature 64 °F 57 °F 54 °F (1996)
Cooling Degree Days 2    
Growing Degree Days 17 (Base 50)    
Moisture  
Dew Point 61 °F    
Average Humidity 82    
Maximum Humidity 94    
Minimum Humidity 70    
Precipitation  
Precipitation 0.18 in - - ()
Sea Level Pressure  
Sea Level Pressure 29.89 in    
Wind  
Wind Speed 6 mph (SSW)    
Max Wind Speed 12 mph    
Max Gust Speed -    
Visibility 7 miles    
Events Rain    
Averages and records for this station are not official NWS values.
T = Trace of Precipitation, MM = Missing Value Source: NWS Daily Summary

Daily Weather History Graph

Daily Weather History Graph

Search for Another Location

Airport or City:

Trip Planner

Search our weather history database for the weather conditions in past years. The results will help you decide how hot, cold, wet, or windy it might be!

Date:

Astronomy

Oct. 21, 2012 Rise Set
Actual Time 6:57 AM PDT 6:08 PM PDT
Civil Twilight 6:32 AM PDT 6:33 PM PDT
Nautical Twilight 6:04 AM PDT 7:02 PM PDT
Astronomical Twilight 5:35 AM PDT 7:30 PM PDT
Moon 1:15 PM PDT No Moon Set
Length of Visible Light 12h 00m
Length of Day
11h 10m
Waxing Crescent, 46% of the Moon is Illuminated
Oct 21
Waxing Crescent
Oct 21
First Quarter
Oct 29
Full
Nov 6
Last Quarter
Nov 13
New

Hourly Weather History & Observations

Time (PDT) Temp. Dew Point Humidity Pressure Visibility Wind Dir Wind Speed Gust Speed Precip Events Conditions
12:12 AM 66.2 °F 60.8 °F 83% 29.88 in 5.0 mi South 5.8 mph - 0.00 in Rain Light Rain
12:52 AM 64.9 °F 62.1 °F 90% 29.88 in 4.0 mi South 6.9 mph - 0.01 in Rain Light Rain
1:33 AM 64.4 °F 60.8 °F 88% 29.88 in 3.0 mi South 5.8 mph - 0.01 in Rain Light Rain
1:52 AM 64.9 °F 61.0 °F 87% 29.88 in 2.0 mi South 5.8 mph - 0.03 in Rain Light Rain
2:37 AM 64.4 °F 60.8 °F 88% 29.87 in 2.5 mi SSE 5.8 mph - 0.01 in Rain Light Rain
2:52 AM 64.9 °F 61.0 °F 87% 29.87 in 2.5 mi SSE 6.9 mph - 0.01 in Rain Light Rain
3:13 AM 64.4 °F 62.6 °F 94% 29.86 in 4.0 mi South 5.8 mph - 0.00 in   Overcast
3:27 AM 64.4 °F 62.6 °F 94% 29.87 in 3.0 mi South 3.5 mph - 0.00 in Rain Light Rain
3:52 AM 64.9 °F 62.1 °F 90% 29.86 in 1.5 mi Calm Calm - 0.02 in Rain Light Rain
4:52 AM 64.9 °F 61.0 °F 87% 29.86 in 1.5 mi Calm Calm - 0.08 in Rain Light Rain
5:52 AM 64.9 °F 61.0 °F 87% 29.87 in 3.0 mi West 4.6 mph - 0.02 in Rain Light Rain
6:52 AM 66.0 °F 61.0 °F 84% 29.88 in 8.0 mi Calm Calm - 0.00 in   Mostly Cloudy
7:34 AM 66.2 °F 59.0 °F 78% 29.89 in 10.0 mi SSW 6.9 mph - N/A   Mostly Cloudy
7:52 AM 66.0 °F 59.0 °F 78% 29.90 in 10.0 mi SSW 6.9 mph - N/A   Mostly Cloudy
8:05 AM 64.4 °F 60.8 °F 88% 29.90 in 5.0 mi SSE 3.5 mph - 0.00 in Rain Light Rain
8:33 AM 64.4 °F 60.8 °F 88% 29.91 in 8.0 mi SE 4.6 mph - 0.00 in   Mostly Cloudy
8:52 AM 66.0 °F 60.1 °F 81% 29.92 in 8.0 mi SE 5.8 mph - 0.00 in Rain Light Rain
9:29 AM 66.2 °F 60.8 °F 83% 29.92 in 10.0 mi SE 5.8 mph - 0.00 in   Mostly Cloudy
9:52 AM 66.9 °F 61.0 °F 81% 29.93 in 10.0 mi SSE 6.9 mph - 0.00 in   Mostly Cloudy
10:52 AM 69.1 °F 59.0 °F 70% 29.92 in 10.0 mi South 9.2 mph - N/A   Mostly Cloudy
11:52 AM 70.0 °F 61.0 °F 73% 29.92 in 10.0 mi South 9.2 mph - N/A   Mostly Cloudy
12:32 PM 68.0 °F 62.6 °F 83% 29.91 in 3.0 mi South 8.1 mph - 0.01 in Rain Light Rain
12:47 PM 68.0 °F 62.6 °F 83% 29.91 in 7.0 mi Variable 5.8 mph - 0.01 in   Overcast
12:52 PM 69.1 °F 63.0 °F 81% 29.91 in 9.0 mi WSW 8.1 mph - 0.01 in   Overcast
1:52 PM 70.0 °F 62.1 °F 76% 29.89 in 9.0 mi WSW 11.5 mph - N/A   Overcast
2:52 PM 70.0 °F 62.1 °F 76% 29.88 in 10.0 mi West 11.5 mph - N/A   Mostly Cloudy
3:52 PM 69.1 °F 60.1 °F 73% 29.88 in 10.0 mi West 6.9 mph - N/A   Overcast
4:52 PM 68.0 °F 61.0 °F 78% 29.88 in 8.0 mi West 8.1 mph - N/A   Mostly Cloudy
5:52 PM 68.0 °F 61.0 °F 78% 29.88 in 8.0 mi West 6.9 mph - N/A   Mostly Cloudy
6:52 PM 68.0 °F 61.0 °F 78% 29.90 in 8.0 mi West 4.6 mph - N/A   Mostly Cloudy
7:52 PM 68.0 °F 60.1 °F 76% 29.90 in 9.0 mi West 4.6 mph - N/A   Overcast
8:52 PM 66.9 °F 59.0 °F 76% 29.91 in 10.0 mi West 8.1 mph - N/A   Overcast
9:52 PM 66.9 °F 59.0 °F 76% 29.92 in 10.0 mi West 6.9 mph - N/A   Overcast
10:52 PM 66.0 °F 57.9 °F 75% 29.92 in 10.0 mi WSW 6.9 mph - N/A   Mostly Cloudy
11:52 PM 66.0 °F 57.9 °F 75% 29.93 in 10.0 mi West 5.8 mph - N/A   Mostly Cloudy